TimeMST,TemperatureF,Dew PointF,Humidity,Sea Level PressureIn,VisibilityMPH,Wind Direction,Wind SpeedMPH,Gust SpeedMPH,PrecipitationIn,Events,Conditions,WindDirDegrees,DateUTC
12:53 AM,36.0,26.1,67,29.91,10.0,SSW,11.5,-,N/A,,Overcast,210,2014-02-24 07:53:00
1:53 AM,36.0,26.1,67,29.91,10.0,SSW,18.4,26.5,N/A,,Clear,210,2014-02-24 08:53:00
2:53 AM,36.0,26.1,67,29.91,10.0,SW,13.8,24.2,N/A,,Clear,220,2014-02-24 09:53:00
3:53 AM,35.1,26.1,70,29.92,10.0,SW,6.9,-,N/A,,Clear,230,2014-02-24 10:53:00
4:53 AM,34.0,26.1,73,29.94,10.0,Calm,Calm,-,N/A,,Clear,0,2014-02-24 11:53:00
5:53 AM,33.1,26.1,75,29.98,10.0,SSW,9.2,-,N/A,,Clear,200,2014-02-24 12:53:00
6:53 AM,32.0,26.1,79,29.99,10.0,SSW,5.8,-,N/A,,Clear,210,2014-02-24 13:53:00
7:53 AM,33.1,27.0,78,30.02,10.0,SSW,8.1,-,N/A,,Mostly Cloudy,200,2014-02-24 14:53:00
8:53 AM,35.1,27.0,72,30.04,10.0,SSW,11.5,-,N/A,,Overcast,210,2014-02-24 15:53:00
9:53 AM,37.0,27.0,67,30.04,10.0,SW,17.3,-,N/A,,Mostly Cloudy,220,2014-02-24 16:53:00
10:53 AM,39.9,28.0,63,30.06,10.0,SW,12.7,-,N/A,,Partly Cloudy,220,2014-02-24 17:53:00
11:53 AM,39.9,28.9,65,30.06,10.0,SW,12.7,-,N/A,,Clear,230,2014-02-24 18:53:00
12:53 PM,45.0,30.0,56,30.04,10.0,SW,16.1,21.9,N/A,,Clear,220,2014-02-24 19:53:00
1:53 PM,50.0,30.0,46,30.01,10.0,SW,16.1,24.2,N/A,,Clear,220,2014-02-24 20:53:00
2:53 PM,50.0,30.0,46,30.00,10.0,SW,19.6,24.2,N/A,,Clear,220,2014-02-24 21:53:00
3:53 PM,46.9,28.9,50,30.01,10.0,SW,19.6,-,N/A,,Clear,220,2014-02-24 22:53:00
4:53 PM,46.9,30.0,52,30.00,10.0,SSW,10.4,-,N/A,,Clear,210,2014-02-24 23:53:00
5:53 PM,45.0,30.9,58,30.01,10.0,SSW,10.4,-,N/A,,Clear,200,2014-02-25 00:53:00
6:53 PM,43.0,30.9,62,30.02,10.0,South,10.4,-,N/A,,Clear,190,2014-02-25 01:53:00
7:53 PM,42.1,30.0,62,30.01,10.0,South,11.5,-,N/A,,Mostly Cloudy,190,2014-02-25 02:53:00
8:53 PM,42.1,30.0,62,30.00,10.0,South,12.7,-,N/A,,Scattered Clouds,190,2014-02-25 03:53:00
9:53 PM,41.0,30.0,65,30.00,10.0,South,12.7,-,N/A,,Clear,180,2014-02-25 04:53:00
10:53 PM,41.0,30.9,67,29.98,10.0,South,12.7,-,N/A,,Mostly Cloudy,190,2014-02-25 05:53:00
11:53 PM,41.0,30.0,65,29.96,10.0,SSW,15.0,23.0,N/A,,Overcast,200,2014-02-25 06:53:00